Temp
58 61 62 63 62 62 63 64 64 65 65 64 61 61 59 57 56 58 57 58 58 56 54 53 52 53 54 53 52 47 49 44 46 43 42 43 44 44 44 44 44 46 45
55 60 60 61 61 62 62 63 64 64 64 63 64 64 63 61 59 57 57 56 56 54 54 53 53 52 50 51 51 49 45 44 43 43 41 40 43 44 45 43 46 43 44
57 58 59 60 60 60 62 62 63 63 63 64 62 61 56 54 54 53 52 54 56 54 54 51 51 51 52 51 51 48 48 45 42 44 43 38 38 40 42 42 42 42 41
59 61 59 59 59 60 62 62 63 62 62 62 60 57 57 56 59 57 56 55 56 54 52 52 51 48 49 49 49 49 45 45 42 43 46 41 42 39 37 40 41 41 44
57 59 59 60 60 61 62 62 62 61 60 60 59 58 57 59 56 53 50 52 51 53 52 51 50 48 47 48 49 47 46 45 43 42 41 41 39 40 38 35 37 40 41
56 60 61 61 60 61 62 62 60 60 59 60 59 60 58 54 54 54 54 53 51 49 51 51 49 49 48 47 46 46 46 45 44 42 43 43 42 40 38 36 35 37 39
54 56 59 60 60 61 60 61 60 58 59 59 59 59 58 56 57 54 54 51 50 49 48 51 49 48 47 46 45 44 44 44 43 43 41 42 42 42 40 38 34 35 37
56 55 59 59 60 60 58 59 60 58 58 58 58 57 58 56 57 57 56 54 53 52 52 50 49 48 48 47 45 43 41 42 41 42 42 41 41 42 41 39 36 34 35
54 56 57 59 60 58 58 60 60 58 58 58 57 55 55 56 56 57 57 54 55 51 46 48 48 46 46 46 45 44 43 42 41 41 41 41 40 40 39 39 38 36 32
55 56 57 59 60 60 60 60 61 58 58 58 57 56 55 57 57 57 55 54 51 52 49 47 47 46 47 46 46 44 43 43 40 41 42 40 39 39 39 38 38 37 34
48 52 54 58 59 59 59 61 58 57 58 57 56 55 54 55 54 54 56 53 51 50 49 49 48 47 46 46 46 45 44 43 42 42 42 40 40 38 38 38 38 36 36
47 48 50 55 55 57 58 60 58 57 58 58 56 54 55 54 55 54 54 52 51 51 50 48 48 47 46 45 45 45 44 42 40 41 40 39 43 37 37 37 36 35 35
46 46 47 53 54 55 57 59 59 58 57 57 56 54 54 53 53 51 51 51 50 50 49 48 47 46 45 45 44 44 43 42 41 39 39 37 37 35 35 35 34 34 37
46 46 45 50 53 56 57 59 59 58 57 56 55 53 53 53 53 52 50 51 50 49 48 49 48 46 45 45 44 43 42 40 40 39 38 37 36 35 34 35 34 35 34
45 45 44 45 49 56 55 58 58 57 57 56 55 53 53 54 53 51 49 49 49 49 49 47 46 45 44 45 43 41 40 39 38 37 38 37 38 41 40 37 35 35 34
43 43 44 45 45 53 58 57 56 56 56 55 54 54 53 53 51 50 48 47 47 48 48 45 44 42 46 46 45 43 40 39 38 36 36 38 40 41 43 42 42 38 35
41 41 41 41 42 45 57 56 56 56 55 54 54 53 53 51 49 48 45 44 43 45 46 45 44 44 44 46 46 44 40 38 36 36 36 38 40 38 37 40 39 39 40
38 40 40 42 43 45 52 58 56 55 54 53 53 53 52 50 49 47 46 44 43 43 43 43 44 42 44 46 45 43 38 37 36 36 36 36 35 37 36 34 32 32 33
38 39 39 41 42 43 53 56 54 54 53 52 52 52 51 49 46 44 42 42 42 42 42 42 42 42 43 45 44 40 37 36 35 36 36 36 36 40 38 33 32 31 32
37 37 38 39 38 39 46 54 53 52 51 52 51 51 49 45 43 41 39 40 40 40 42 42 43 44 42 44 43 40 37 34 34 35 37 39 37 39 37 32 31 29 29
35 36 36 35 35 38 41 42 47 50 51 49 48 47 45 43 41 39 37 37 37 39 39 39 40 40 41 41 42 41 38 36 35 34 33 35 38 39 38 36 32 31 31
33 34 34 33 35 36 37 35 36 38 43 42 38 37 36 36 36 35 34 34 34 34 34 34 35 37 39 42 42 41 39 38 33 31 32 35 38 38 37 35 35 34 31
31 33 32 32 32 33 34 32 32 34 35 35 34 34 34 34 34 34 33 33 33 33 33 33 32 32 35 37 40 39 38 36 32 33 36 38 37 36 35 35 33 31 28
29 31 31 29 29 31 32 32 33 33 33 32 33 33 33 33 34 34 35 34 33 32 32 32 32 32 33 33 34 35 33 36 35 37 35 34 33 33 32 30 29 29 28
29 29 29 29 29 31 31 32 33 34 32 32 32 32 33 33 32 33 33 33 33 34 32 32 32 32 30 31 33 33 31 32 34 31 29 28 28 26 27 26 26 27 27
28 28 28 28 28 30 30 31 32 33 32 31 31 32 31 31 31 31 31 36 36 36 36 35 33 32 34 35 35 35 36 37 36 30 26 25 25 25 24 24 24 24 24
MSLP
1004.75 1005.06 1005.58 1005.97 1006.72 1007.36 1008.04 1008.83 1009.49 1010.42 1011.13 1012.18 1013.50 1014.50 1015.32 1016.14 1016.82 1017.40 1018.01 1018.58 1019.33 1020.07 1020.72 1021.51 1022.20 1022.55 1023.03 1023.49 1023.95 1025.01 1025.98 1026.85 1027.11 1027.76 1028.73 1029.05 1029.11 1029.23 1029.42 1029.53 1029.63 1029.67 1029.70
1004.10 1004.43 1004.98 1005.43 1006.01 1006.78 1007.50 1008.09 1008.88 1009.77 1010.68 1011.51 1012.59 1013.46 1014.23 1015.50 1016.38 1017.13 1017.88 1018.40 1019.20 1019.93 1020.57 1021.25 1021.91 1022.42 1023.27 1023.91 1024.32 1024.74 1025.94 1026.85 1027.03 1027.73 1028.55 1029.52 1029.69 1029.57 1029.56 1029.83 1029.80 1030.09 1030.03
1002.95 1003.64 1004.15 1004.73 1005.54 1006.13 1006.87 1007.54 1008.47 1009.86 1009.86 1011.36 1012.47 1013.50 1014.94 1016.20 1016.98 1017.49 1017.99 1018.32 1018.74 1019.56 1020.19 1021.06 1021.83 1022.40 1022.84 1023.72 1024.21 1024.66 1025.10 1026.27 1027.01 1027.12 1027.49 1029.07 1029.41 1029.76 1029.97 1030.11 1030.19 1030.34 1030.46
1001.97 1002.49 1003.16 1003.94 1004.65 1005.40 1006.24 1007.30 1008.09 1008.93 1009.72 1010.35 1012.04 1012.52 1013.90 1015.24 1015.89 1016.44 1017.36 1018.01 1018.44 1019.26 1020.01 1020.85 1021.59 1022.41 1022.88 1023.39 1023.87 1024.62 1025.06 1025.76 1026.51 1027.15 1027.27 1027.44 1027.89 1029.16 1030.42 1030.43 1030.53 1030.65 1030.75
1000.78 1001.40 1002.09 1002.83 1003.85 1004.75 1005.59 1006.79 1007.85 1008.84 1009.91 1009.98 1011.47 1011.80 1013.53 1014.02 1015.56 1016.75 1017.39 1018.18 1018.73 1019.09 1019.68 1020.57 1021.44 1022.22 1022.83 1023.38 1023.67 1024.46 1025.24 1025.74 1026.57 1026.76 1027.30 1027.74 1027.99 1028.19 1029.11 1030.44 1030.84 1030.89 1031.03
1000.13 1000.50 1001.15 1002.10 1003.02 1003.94 1005.02 1006.10 1007.23 1008.41 1009.33 1009.76 1010.85 1011.49 1012.87 1013.98 1015.26 1016.42 1017.43 1018.07 1018.81 1019.22 1019.82 1020.31 1021.17 1021.96 1022.60 1023.12 1023.65 1024.28 1024.94 1025.63 1026.25 1026.72 1026.89 1027.16 1027.60 1028.27 1028.76 1029.95 1030.78 1031.09 1031.45
999.47 999.93 1000.58 1001.51 1002.29 1003.21 1004.49 1005.42 1006.45 1007.87 1008.89 1009.81 1010.35 1011.11 1012.34 1013.03 1014.47 1015.34 1016.70 1017.72 1018.49 1019.31 1019.75 1020.18 1020.90 1021.68 1022.43 1023.18 1023.78 1024.42 1025.04 1025.59 1026.13 1026.78 1027.15 1027.18 1027.44 1027.70 1028.44 1029.21 1030.56 1031.10 1031.56
998.79 999.24 999.64 1000.52 1001.43 1002.40 1003.78 1004.79 1005.90 1007.05 1008.61 1009.31 1010.12 1011.10 1011.98 1013.08 1013.94 1014.74 1016.14 1017.10 1018.07 1018.85 1018.98 1020.01 1020.76 1021.48 1022.16 1023.12 1023.97 1024.56 1025.27 1025.77 1026.23 1026.73 1027.33 1027.51 1027.76 1027.96 1028.36 1028.99 1029.83 1031.15 1031.57
998.02 998.53 999.18 999.88 1000.62 1001.77 1002.59 1003.63 1005.23 1006.47 1007.99 1009.03 1009.95 1011.03 1012.10 1012.88 1013.79 1014.94 1015.43 1016.82 1017.82 1018.53 1019.67 1020.27 1021.12 1021.76 1022.43 1022.84 1023.80 1024.87 1025.31 1025.83 1026.41 1026.79 1027.44 1028.09 1028.33 1028.45 1028.74 1029.04 1029.44 1030.16 1031.47
997.64 998.01 998.65 999.28 1000.02 1000.83 1001.77 1003.07 1004.29 1005.55 1007.18 1008.58 1009.30 1010.44 1011.63 1012.80 1013.29 1014.92 1015.51 1016.21 1017.94 1018.20 1019.47 1020.20 1021.11 1022.20 1022.95 1023.22 1023.61 1024.45 1025.48 1025.72 1026.41 1026.90 1027.25 1028.11 1028.85 1029.19 1029.44 1029.67 1029.83 1030.09 1030.84
997.40 997.97 998.44 998.96 999.70 1000.58 1001.43 1002.43 1003.93 1005.44 1006.53 1007.90 1008.99 1010.12 1011.35 1012.72 1013.13 1014.43 1015.77 1016.15 1017.24 1018.45 1019.34 1020.26 1020.76 1021.97 1022.97 1023.73 1023.95 1024.58 1025.10 1025.96 1026.61 1027.18 1027.56 1027.88 1028.27 1029.26 1030.06 1030.26 1030.63 1030.73 1031.00
998.20 998.42 998.62 999.09 999.58 1000.23 1000.85 1002.00 1003.59 1004.63 1005.82 1007.41 1008.59 1009.83 1010.89 1012.20 1012.96 1014.44 1015.04 1016.14 1017.25 1018.41 1019.30 1020.29 1021.09 1021.78 1022.97 1023.81 1024.37 1024.86 1025.31 1025.98 1026.91 1027.58 1028.07 1028.76 1029.14 1029.18 1029.90 1030.38 1031.14 1031.16 1031.38
998.89 998.79 998.99 999.40 999.87 1000.18 1000.78 1001.99 1003.17 1004.25 1005.46 1007.05 1008.19 1009.60 1010.56 1011.55 1012.61 1013.67 1014.77 1015.95 1017.02 1018.23 1019.29 1019.97 1021.01 1021.49 1022.55 1023.71 1024.59 1025.20 1025.84 1026.48 1027.02 1027.82 1028.33 1029.00 1029.41 1030.07 1030.47 1030.50 1031.52 1031.49 1031.71
1000.12 1000.13 999.94 999.84 999.88 1000.22 1000.79 1001.67 1002.76 1003.83 1005.24 1006.45 1007.63 1009.00 1009.98 1010.79 1011.97 1013.28 1014.54 1015.57 1016.92 1018.27 1019.08 1019.75 1020.91 1021.50 1022.40 1023.31 1024.26 1025.27 1026.06 1027.03 1027.65 1028.14 1028.81 1029.40 1029.74 1030.35 1030.67 1031.19 1031.59 1031.92 1031.91
1001.47 1001.39 1001.20 1000.97 1000.50 1000.55 1001.11 1001.64 1002.50 1003.73 1004.92 1005.94 1007.13 1008.32 1009.54 1010.58 1011.64 1013.03 1014.26 1015.50 1016.63 1017.91 1019.25 1019.88 1021.04 1021.66 1022.44 1023.16 1024.20 1025.21 1026.32 1027.14 1028.05 1028.67 1029.23 1029.82 1030.12 1030.38 1030.74 1031.11 1031.54 1031.98 1031.98
1002.63 1002.82 1002.75 1002.13 1001.71 1001.18 1000.99 1001.50 1002.74 1003.50 1004.57 1005.56 1006.73 1007.95 1009.21 1010.37 1011.42 1012.72 1013.99 1015.25 1016.54 1017.93 1018.75 1019.80 1020.66 1021.46 1022.14 1023.24 1024.05 1025.15 1026.40 1027.43 1028.16 1028.94 1029.54 1030.04 1030.16 1030.45 1030.84 1030.88 1031.59 1031.82 1031.83
1003.84 1003.63 1003.97 1003.42 1003.00 1002.24 1001.36 1001.35 1002.04 1003.22 1004.29 1005.28 1006.42 1007.48 1008.79 1010.15 1011.32 1012.63 1013.99 1015.16 1016.44 1017.61 1018.64 1019.39 1020.61 1021.26 1021.88 1022.72 1023.81 1024.98 1026.48 1027.69 1028.40 1029.00 1029.52 1030.08 1030.42 1030.91 1031.24 1031.45 1032.08 1031.99 1031.98
1005.44 1005.15 1004.50 1003.68 1002.83 1001.87 1001.00 1001.09 1001.98 1002.90 1003.91 1004.94 1005.99 1007.20 1008.50 1009.87 1011.18 1012.43 1013.71 1015.04 1016.36 1017.17 1018.39 1019.48 1020.29 1020.95 1021.99 1022.42 1023.86 1025.27 1026.80 1027.82 1028.86 1029.38 1029.61 1030.04 1030.62 1031.24 1031.38 1031.95 1032.52 1032.57 1032.76
1006.81 1006.28 1005.42 1004.62 1003.39 1001.99 1001.01 1001.27 1002.19 1002.85 1003.69 1004.59 1005.65 1006.91 1008.23 1009.67 1011.09 1012.54 1013.98 1015.07 1016.21 1017.55 1018.80 1019.76 1020.60 1021.31 1022.21 1023.03 1024.17 1025.46 1026.78 1028.02 1029.15 1029.77 1030.11 1030.42 1030.80 1031.39 1031.62 1031.82 1032.34 1032.47 1032.85
1007.69 1007.06 1006.21 1005.39 1004.22 1003.43 1002.35 1001.87 1002.55 1003.18 1003.80 1004.67 1005.59 1006.81 1008.19 1009.64 1011.17 1012.70 1014.07 1015.18 1016.96 1017.69 1018.66 1020.15 1021.20 1022.04 1022.66 1023.82 1025.08 1025.65 1026.86 1028.16 1029.37 1030.09 1030.26 1030.46 1031.14 1031.57 1032.07 1032.06 1032.10 1032.62 1032.98
1008.53 1007.71 1006.86 1006.49 1005.98 1005.12 1003.98 1003.41 1003.37 1003.78 1004.12 1005.26 1006.31 1007.39 1008.77 1010.09 1011.48 1012.93 1014.41 1015.53 1016.76 1018.01 1019.60 1020.09 1021.58 1022.62 1023.33 1024.46 1025.28 1026.30 1027.37 1028.23 1029.16 1029.94 1030.68 1031.25 1031.55 1031.88 1031.88 1032.02 1032.10 1032.81 1033.23
1009.06 1008.54 1007.87 1007.34 1007.06 1006.49 1005.81 1005.43 1005.16 1005.46 1005.14 1005.95 1007.28 1008.67 1009.74 1011.03 1012.19 1013.21 1014.95 1016.40 1017.46 1017.66 1019.42 1020.77 1022.13 1023.55 1024.24 1025.12 1025.68 1026.72 1027.80 1028.49 1029.27 1030.43 1031.02 1031.39 1031.77 1031.96 1031.82 1032.10 1032.54 1033.01 1033.06
1010.19 1009.58 1009.04 1008.77 1008.39 1008.02 1007.62 1007.25 1007.47 1007.09 1006.92 1006.48 1008.19 1009.63 1010.84 1012.02 1013.06 1013.89 1015.13 1016.54 1017.80 1018.06 1019.90 1021.30 1022.16 1023.79 1024.78 1025.82 1026.41 1026.82 1027.98 1029.07 1029.91 1030.69 1030.92 1031.39 1031.88 1031.87 1032.23 1032.61 1033.06 1033.01 1033.27
1010.92 1010.38 1010.06 1009.90 1009.67 1009.37 1009.09 1008.90 1008.84 1008.64 1008.82 1009.36 1009.96 1010.77 1011.81 1012.96 1014.15 1015.16 1015.86 1016.88 1017.94 1019.02 1019.43 1021.03 1022.50 1023.92 1025.01 1025.86 1026.79 1027.52 1028.86 1029.41 1030.15 1030.63 1031.34 1031.84 1032.16 1032.53 1032.92 1033.29 1033.25 1033.34 1033.24
1011.93 1011.61 1011.17 1010.87 1010.73 1010.48 1010.28 1010.21 1010.09 1009.83 1010.12 1011.04 1011.51 1012.22 1013.03 1014.06 1015.09 1016.23 1017.15 1017.91 1018.85 1019.07 1019.90 1021.11 1022.38 1023.51 1025.11 1026.29 1027.33 1028.03 1029.16 1029.96 1030.54 1031.44 1032.05 1032.38 1032.87 1033.20 1033.53 1033.67 1033.79 1033.50 1033.46
1013.02 1012.68 1012.38 1012.10 1011.87 1011.54 1011.32 1011.33 1011.36 1011.35 1011.42 1012.18 1013.00 1013.55 1014.28 1015.09 1016.04 1016.88 1018.22 1019.43 1019.95 1020.76 1021.41 1022.15 1022.89 1024.49 1025.37 1026.63 1027.71 1028.57 1029.48 1030.17 1030.75 1031.52 1032.13 1032.72 1033.24 1033.66 1033.71 1033.84 1033.91 1033.80 1033.82
Wind_Speed
9 15 17 17 16 16 19 20 20 20 15 13 11 11 11 9 8 8 11 11 10 9 9 7 7 6 8 8 10 5 8 3 5 5 4 4 4 4 3 3 4 5 5
11 16 17 18 18 19 19 19 20 21 16 13 13 11 12 10 9 7 9 10 11 9 9 10 8 8 7 8 9 8 5 3 2 4 3 2 2 3 2 2 3 4 3
19 17 19 19 17 19 20 18 19 17 18 15 11 8 6 5 3 6 7 9 13 11 9 8 7 7 8 8 8 6 7 7 1 3 4 3 3 3 2 3 3 4 3
19 20 20 19 19 17 17 18 18 20 14 19 15 20 13 13 9 10 8 9 12 11 10 9 8 7 6 8 7 5 4 5 5 2 2 3 5 5 2 2 2 2 3
19 20 21 21 19 17 17 17 17 18 17 19 19 17 15 13 8 4 9 8 6 10 11 10 9 8 5 7 8 7 6 4 4 3 3 2 3 3 4 3 1 2 3
16 19 18 20 19 18 19 19 20 19 18 19 19 21 20 14 12 11 11 9 7 6 9 10 8 8 7 8 6 6 8 5 4 2 2 3 3 3 3 4 2 3 2
14 15 19 19 19 21 22 21 22 20 20 18 21 19 20 20 19 17 12 12 9 6 9 11 10 8 7 7 7 7 6 6 5 5 3 3 2 3 3 4 2 3 1
15 17 20 22 22 23 19 22 22 19 19 19 18 16 19 11 13 15 12 10 9 8 12 9 9 10 10 9 7 6 5 7 6 8 5 4 4 3 2 4 5 3 1
13 17 17 20 20 21 21 21 22 20 20 20 18 16 14 16 14 16 15 10 10 9 7 9 9 9 10 11 11 7 8 8 6 7 7 5 4 4 4 4 3 4 3
15 16 18 21 19 20 19 20 20 21 21 20 18 17 18 16 14 13 14 14 8 11 12 12 11 10 9 10 11 10 8 10 6 6 10 7 4 5 4 4 4 3 3
6 10 15 16 18 18 19 19 19 20 21 20 19 18 16 17 16 15 14 12 14 12 13 13 14 12 11 9 10 10 11 11 9 7 9 9 8 5 4 4 3 3 3
8 6 8 14 14 16 20 21 19 20 20 19 20 19 19 17 17 15 16 15 14 13 15 13 13 13 10 8 10 11 10 11 10 8 9 8 6 7 6 4 4 4 4
10 8 7 13 14 15 16 18 19 19 19 19 19 18 18 17 18 17 14 15 14 14 14 14 14 14 13 11 8 9 9 8 9 7 8 7 8 6 4 6 4 3 4
9 8 7 7 11 14 17 18 18 17 19 20 20 19 19 19 17 16 15 17 15 14 13 13 13 13 13 12 12 11 10 9 8 8 7 6 7 7 6 5 4 3 3
9 9 7 4 5 14 11 16 16 18 18 19 19 19 18 18 17 17 16 16 16 14 14 14 12 12 12 10 13 12 11 11 10 8 8 7 9 12 8 5 4 3 2
9 12 9 8 7 9 14 15 16 17 17 18 17 18 18 17 17 17 17 17 17 16 15 15 15 14 10 22 23 16 12 11 11 10 8 7 11 10 10 10 6 4 2
17 15 12 10 8 6 14 17 18 16 17 18 17 18 18 17 17 17 17 17 16 15 16 16 16 14 15 26 26 23 11 10 10 10 9 8 6 8 5 8 8 8 9
16 14 12 13 11 9 13 17 15 17 18 17 16 18 18 17 17 17 17 17 14 16 13 13 15 15 14 26 26 23 12 10 9 8 8 9 7 6 7 6 5 5 5
12 11 11 11 12 13 3 12 13 16 17 17 17 18 18 17 18 17 16 15 15 14 14 12 13 15 16 26 27 20 13 11 10 8 8 7 6 9 10 6 5 4 3
13 13 12 11 14 16 12 9 12 11 14 14 15 16 16 18 18 17 16 14 13 14 13 15 14 19 17 25 23 18 11 12 9 8 9 13 7 8 9 5 4 4 3
13 13 11 10 11 12 11 10 4 9 10 11 13 15 16 18 18 17 15 16 18 17 15 18 15 16 16 18 23 22 10 10 9 8 6 5 9 8 10 7 4 5 3
14 13 10 11 11 12 9 8 10 7 9 15 15 14 15 13 14 19 14 16 16 19 17 17 15 11 13 20 22 21 18 17 10 8 6 6 11 10 10 8 10 8 7
10 10 9 9 10 11 8 9 6 7 12 10 17 16 14 14 14 18 17 15 15 16 16 13 14 12 9 10 23 23 22 19 9 7 10 14 12 13 10 10 8 8 3
9 9 9 9 10 10 10 8 7 10 13 13 14 15 16 15 13 11 12 13 12 12 14 14 13 12 10 9 8 10 10 18 11 14 10 11 11 11 8 6 6 3 2
8 8 8 9 9 9 10 9 7 11 14 13 13 13 12 14 13 10 8 9 8 11 14 13 13 14 11 9 12 12 8 7 10 10 6 5 4 4 4 3 2 2 3
8 9 9 9 9 10 11 10 8 10 14 13 11 11 11 11 12 13 13 21 21 23 24 24 17 11 20 23 21 19 18 19 19 7 6 5 4 3 3 3 2 2 4
Wind_Direction
198 194 191 182 178 177 174 175 169 175 165 163 159 160 170 164 166 170 161 153 152 152 144 143 140 148 152 149 138 111 122 79 113 103 69 55 67 83 87 92 86 72 81
188 197 193 185 183 177 175 170 173 175 168 164 169 174 165 171 155 154 150 146 147 151 151 154 159 149 133 142 148 140 122 106 190 125 95 117 8 42 62 79 100 82 78
205 192 189 191 182 180 178 168 172 173 163 168 159 132 94 88 98 144 147 160 156 158 150 150 152 148 146 161 159 153 139 152 110 194 137 120 181 129 4 62 81 100 81
205 199 188 189 188 184 173 173 166 165 167 152 161 156 161 165 180 167 162 162 159 155 149 149 149 150 148 154 158 145 127 128 150 102 62 62 141 154 134 35 51 116 94
192 199 187 186 188 178 172 175 165 172 169 161 166 157 163 164 144 138 138 151 149 155 150 150 150 148 146 149 147 141 143 126 139 140 146 87 59 81 133 164 141 38 42
192 200 184 184 185 179 175 176 168 173 171 165 169 167 162 150 150 154 164 165 158 147 153 146 146 152 150 156 151 141 144 142 124 130 133 154 156 160 128 112 118 142 55
188 190 179 187 187 177 184 180 170 170 172 176 168 165 166 159 172 164 169 161 158 161 161 154 152 151 145 139 136 135 131 136 127 133 114 96 94 117 112 100 116 134 145
184 184 181 185 187 176 182 173 176 164 175 168 173 167 165 166 168 165 166 167 172 168 157 153 151 143 139 132 125 122 116 116 118 113 90 93 74 71 92 127 134 94 91
191 186 180 185 181 176 179 169 172 169 171 177 169 163 166 165 171 178 162 165 164 147 137 138 137 138 142 138 133 131 125 121 118 115 103 89 76 73 77 84 99 132 144
208 186 183 181 182 178 172 167 171 168 168 178 169 167 171 173 163 173 164 156 153 145 150 143 139 141 144 142 137 132 135 127 126 124 117 108 87 76 70 81 86 81 121
150 167 171 174 175 169 170 169 175 170 168 174 170 169 173 176 158 171 174 154 151 149 155 156 147 147 146 151 138 140 137 131 126 122 123 123 126 110 91 80 68 74 76
80 101 150 167 171 172 170 171 179 174 168 175 170 174 168 172 167 175 163 159 157 158 156 153 152 144 144 142 145 144 137 132 132 126 119 120 115 108 114 94 89 96 70
61 49 121 166 171 173 173 172 178 176 167 174 171 171 170 167 171 164 163 159 151 162 161 153 158 149 146 143 136 129 124 122 121 123 120 120 114 99 98 94 97 77 79
61 61 52 171 171 176 175 175 178 173 175 174 170 173 175 172 170 164 161 160 160 162 160 156 159 150 144 136 130 126 120 116 112 104 103 107 107 117 107 101 105 88 87
44 48 46 27 204 187 186 175 177 174 179 173 174 175 173 172 165 165 160 157 159 160 162 146 145 138 136 137 133 127 125 123 113 103 103 100 114 117 121 120 114 126 89
46 40 12 9 7 206 184 168 177 174 173 174 175 171 171 170 166 162 160 158 160 162 156 153 149 145 140 144 138 133 129 127 126 122 112 119 116 118 108 93 109 137 106
16 19 1 350 338 309 201 182 177 172 176 176 170 169 167 168 162 159 156 157 157 157 162 154 153 150 144 146 143 136 130 131 128 131 130 126 118 99 85 89 77 58 51
2 355 348 343 334 301 210 188 171 174 173 172 167 168 167 166 160 159 159 154 154 152 150 152 151 140 151 141 141 133 124 119 122 129 125 121 120 125 112 102 81 60 47
351 341 343 341 331 358 204 174 175 178 174 174 169 165 164 158 155 155 154 151 149 151 151 145 145 143 141 140 140 130 122 119 116 113 111 114 102 116 110 104 103 91 67
351 344 346 349 358 352 336 160 170 169 171 169 164 159 152 149 149 144 141 138 140 135 134 134 133 136 130 135 136 126 126 123 121 116 118 112 113 112 116 111 102 74 55
347 348 1 1 359 351 360 57 96 174 155 136 133 137 141 144 140 135 136 137 142 134 135 124 125 124 128 136 135 132 130 130 126 121 107 101 121 126 114 108 89 95 81
351 357 0 5 2 6 26 35 58 11 104 121 117 121 125 129 133 130 132 134 135 125 129 127 119 120 126 139 135 133 126 126 120 120 122 130 132 123 101 79 76 63 56
350 359 11 10 14 21 31 56 35 66 84 101 111 115 116 123 133 136 135 135 141 137 134 130 123 121 126 131 136 129 129 129 117 134 139 139 126 101 88 88 72 61 43
4 6 17 27 29 29 42 54 70 84 84 94 104 113 117 119 121 126 131 134 140 141 134 135 131 129 125 120 121 121 128 135 136 140 124 125 117 105 96 75 56 46 40
17 20 29 35 37 42 51 51 66 93 95 96 100 104 108 111 111 102 113 124 118 135 137 132 132 133 124 121 126 128 129 127 131 113 107 104 103 97 93 76 45 30 36
28 37 36 41 40 47 52 54 60 91 106 104 104 111 110 108 106 105 97 89 106 115 113 111 112 111 122 129 133 132 142 148 140 122 116 110 110 119 106 70 32 21 8